Weather History for Worland, WY

Change the Weather History Date:

Tuesday, January 24, 2012

  Actual Average Record
Temperature  
Mean Temperature 26 °F 18 °F  
Max Temperature 38 °F 31 °F 59 °F (2005)
Min Temperature 14 °F 4 °F -17 °F (2008)
Degree Days  
Heating Degree Days 39 47  
Month to date heating degree days 962 1159  
Since 1 July heating degree days 3949 4522  
Cooling Degree Days 0 0  
Month to date cooling degree days 0 0  
Year to date cooling degree days 0 0  
Moisture  
Dew Point 21 °F    
Average Humidity 67    
Maximum Humidity 96    
Minimum Humidity 37    
Precipitation  
Precipitation T in 0.01 in 0.12 in (1982)
Month to date precipitation 0.03 0.18  
Year to date precipitation 0.03 0.18  
Sea Level Pressure  
Sea Level Pressure 30.12 in    
Wind  
Wind Speed 9 mph (SSE)    
Max Wind Speed 13 mph    
Max Gust Speed 17 mph    
Visibility 8 miles    
Events Snow    
T = Trace of Precipitation, MM = Missing Value Source: NWS Daily Summary

Daily Weather History Graph

Daily Weather History Graph

Search for Another Location

Airport:

Trip Planner

Search our weather history database for the weather conditions in past years. The results will help you decide how hot, cold, wet, or windy it might be!

Date:

Astronomy

Jan. 24, 2012 Rise Set
Actual Time 7:37 AM MST 5:10 PM MST
Civil Twilight 7:05 AM MST 5:42 PM MST
Nautical Twilight 6:30 AM MST 6:17 PM MST
Astronomical Twilight 5:56 AM MST 6:51 PM MST
Moon 8:03 AM MST (1/24) 7:11 PM MST (1/24)
Length of Visible Light 10h 36m
Length of Day
9h 33m
Waxing Crescent, 3% of the Moon is Illuminated
Jan 24
Waxing Crescent
Jan 30
First Quarter
Feb 7
Full
Feb 14
Last Quarter
Feb 21
New

Hourly Weather History & Observations

Time (MST) Temp. Windchill Dew Point Humidity Pressure Visibility Wind Dir Wind Speed Gust Speed Precip Events Conditions
12:04 AM 30.2 °F 21.3 °F 28.4 °F 93% 29.90 in 1.5 mi NNW 10.4 mph - N/A Snow Light Snow
12:35 AM 30.2 °F 23.4 °F 28.4 °F 93% 29.91 in 1.0 mi NNW 6.9 mph - 0.00 in Snow Light Snow
12:43 AM 30.2 °F 23.4 °F 28.4 °F 93% 29.91 in 0.8 mi NNW 6.9 mph - N/A Snow Light Snow
12:53 AM 30.0 °F 22.4 °F 28.9 °F 96% 29.99 in 1.0 mi NNW 8.1 mph - 0.00 in Snow Light Snow
1:05 AM 30.2 °F 20.2 °F 28.4 °F 93% 29.92 in 0.8 mi North 12.7 mph 17.3 mph 0.00 in Snow Light Snow
1:13 AM 30.2 °F 21.3 °F 28.4 °F 93% 29.92 in 1.2 mi NNW 10.4 mph - N/A Snow Light Snow
1:21 AM 30.2 °F 22.6 °F 28.4 °F 93% 29.93 in 2.0 mi North 8.1 mph - 0.00 in Snow Light Snow
1:32 AM 30.2 °F 24.3 °F 28.4 °F 93% 29.93 in 4.0 mi NNE 5.8 mph - 0.00 in Snow Light Snow
1:44 AM 30.2 °F 22.6 °F 28.4 °F 93% 29.94 in 8.0 mi North 8.1 mph - 0.00 in Snow Light Snow
1:53 AM 30.0 °F 23.2 °F 27.0 °F 88% 30.01 in 10.0 mi North 6.9 mph - 0.00 in   Overcast
3:53 AM 28.9 °F 20.4 °F 25.0 °F 85% 30.06 in 10.0 mi WSW 9.2 mph - N/A   Overcast
4:53 AM 28.0 °F 18.6 °F 24.1 °F 85% 30.12 in 10.0 mi WSW 10.4 mph - N/A   Overcast
5:53 AM 23.0 °F 12.4 °F 21.0 °F 92% 30.17 in 10.0 mi WSW 10.4 mph - N/A   Overcast
6:53 AM 17.6 °F 10.7 °F 15.8 °F 93% 30.07 in 10.0 mi South 4.6 mph - N/A   Clear
7:53 AM 15.1 °F 4.2 °F 12.9 °F 91% 30.24 in 10.0 mi SSW 8.1 mph - N/A   Clear
8:53 AM 19.0 °F 12.3 °F 16.0 °F 88% 30.28 in 8.0 mi South 4.6 mph - N/A   Clear
9:53 AM 24.1 °F 18.2 °F 19.0 °F 81% 30.29 in 10.0 mi SSW 4.6 mph - N/A   Clear
10:53 AM 27.0 °F - 21.0 °F 78% 30.29 in 10.0 mi Calm Calm - N/A   Clear
11:53 AM 32.0 °F 28.7 °F 19.0 °F 59% 30.27 in 10.0 mi South 3.5 mph - N/A   Clear
12:53 PM 34.0 °F 29.8 °F 19.9 °F 56% 30.24 in 10.0 mi SE 4.6 mph - N/A   Clear
1:53 PM 36.0 °F 30.3 °F 16.0 °F 44% 30.21 in 10.0 mi SSE 6.9 mph - N/A   Clear
2:53 PM 37.9 °F 31.5 °F 15.1 °F 39% 30.20 in 10.0 mi ESE 9.2 mph - N/A   Clear
3:53 PM 37.0 °F 29.3 °F 14.0 °F 39% 30.21 in 10.0 mi ESE 11.5 mph - N/A   Clear
4:53 PM 30.9 °F 22.2 °F 16.0 °F 54% 30.22 in 10.0 mi ESE 10.4 mph - N/A   Clear
5:53 PM 28.0 °F 17.5 °F 19.0 °F 69% 30.26 in 10.0 mi SE 12.7 mph - N/A   Clear
6:53 PM 25.0 °F 14.8 °F 18.0 °F 75% 30.27 in 10.0 mi SE 10.4 mph - N/A   Clear
7:53 PM 25.0 °F 14.2 °F 17.1 °F 72% 30.28 in 10.0 mi SE 11.5 mph - N/A   Clear
8:53 PM 24.1 °F 12.5 °F 15.1 °F 69% 30.23 in 10.0 mi SE 12.7 mph - N/A   Clear
9:53 PM 23.0 °F 11.1 °F 12.0 °F 63% 30.20 in 10.0 mi SE 12.7 mph - N/A   Clear
10:53 PM 23.0 °F 11.1 °F 10.9 °F 60% 30.18 in 10.0 mi ESE 12.7 mph - N/A   Clear
11:53 PM 21.0 °F 16.2 °F 12.0 °F 68% 30.17 in 10.0 mi West 3.5 mph - N/A   Clear